Tracking 22879 objects as of 23-Apr-2021
HD Live streaming from Space Station
objects crossing your sky now

FLOCK 2K 24

Track FLOCK 2K 24 now!
10-day predictions
FLOCK 2K 24 is classified as:


NORAD ID: 42857
Int'l Code: 2017-042AJ
Perigee: 420.0 km
Apogee: 427.5 km
Inclination: 96.9 °
Period: 92.9 minutes
Semi major axis: 6794 km
RCS: Unknown
Launch date: July 14, 2017
Source: United States (US)
Launch site: TYURATAM MISSILE AND SPACE COMPLEX (TTMTR)
aabbcc
Your satellite tracking list
Your tracking list is empty




NASA's NSSDC Master Catalog

Two Line Element Set (TLE):
1 42857U 17042AJ  21112.53344667  .00014905  00000-0  26690-3 0  9990
2 42857  96.8533 330.8889 0005555 268.8279  91.2337 15.50034535211913
Source of the keplerian elements: AFSPC